Location: Neuvy Saint Sepulchre
(46.5953°N, 1.8122°E)
Time: 16:46:32
(UTC+02:00)

ISS - Pass Details

Date: 07 May 2026
Orbit: 414 x 424 km, 51.6° (Epoch: 21 May)

Event Time Altitude Azimuth Distance (km) Brightness Sun altitude
Exits shadow 03:19:31 31° 334° (NNW) 756 -2.2 -23.4°
Maximum altitude 03:20:24 38° 11° (N) 658 -2.3 -23.4°
Drops below altitude 10° 03:23:34 10° 81° (E) 1,499 -0.6 -23.2°
Sets 03:25:46 0° 90° (E) 2,364 0.4 -23.0°
